Погода в Нетьинке

Россия / Брянская область     53°20′52″N   34°11′41″E
темп.,
°C
ветер,
м/с
пор.,
м/с
влажн.,
%
обл.,
%
осадки,
мм/ч
давл.,
гПа
погр.,
м
18 мая, вт
вт1800:00+18ююв41486100 1.0 1004465
03:00+16юв41095100 1.9 1004244
06:00+16юв269868 0.9 1004218
09:00+20ююз2382100 1.1 1004465
12:00+22юв4871100 1.8 10031180
15:00+21ю3576100 3.4 1003935
18:00+19юв1585100 1.6 1001288
21:00+14юв3995100 11.3 1002304
19 мая, ср
ср1900:00+14юв51294100 0.1 1002370
03:00+13юв4109661 0.1 1002294
06:00+13юв410969 0.1 1003360
09:00+16ююв6881100 0.1 1004845
12:00+19ююв6860100 0.0 10051564
15:00+20ююв5857100 0.0 10051778
18:00+18ююв3571100 0.0 1004360
21:00+15ююв2386100 0.2 100570
20 мая, чт
чт2000:00+13сз2496100 1.1 1004141
03:00+13с3897100 1.8 1001430
06:00+13в2597100 2.1 1000440
09:00+13зюз3895100 3.8 1000658
12:00+12зюз81295100 2.3 1002890
15:00+11зюз61192100 3.3 1006695
18:00+11зюз5991100 0.1 1008627
21:00+10з4992100 0.3 1010513
21 мая, пт
пт2100:00+8з411935 0.0 1012356
03:00+6зюз379797 0.0 1013157
06:00+8зюз3894100 0.0 1015260
09:00+13ссз4772100 0.0 1015697
12:00+16сз345775 0.0 10161360
15:00+18сз3349100 0.0 10151995
18:00+16сз3570100 0.0 1016217
21:00+13ссв2269100 0.0 101725
22 мая, сб
сб2200:00+12ссв1176100 0.0 101713
03:00+10зсз1187100 0.0 101710
06:00+11всв2388100 0.0 101784
09:00+16в3570100 0.0 1018621
12:00+16вюв6668100 0.1 10171168
15:00+15в567870 0.2 1017791
18:00+14всв368493 0.3 1016354
21:00+12всв310950 0.3 1015292